Content
SEND FEEDBACK

Daily
Averages
Monthly
Summary
United States of America

BOSTON, MASSACHUSETTS


Home > North America > United States > Massachusetts
Elevation: 1 meter     Latitude: 42 22N     Longitude: 071 02W

WEATHER
 
SELECT A DAY
Number of Records: 202,348;   Date Range: 1/1/95 - 7/7/14
 
SHARE

PRINT THIS DATA

[ ← Previous Day ]
WEATHER ALMANAC - 22 MAY, 2013
[ Next Day → ]
[ °F ]   °C
Weather ElementAverageHighLow
Temperature12.7 °C15 °C (10:54 am)10.6 °C (1:54 am)
Dewpoint11.1 °C12.2 °C (10:54 am)9 °C (1:22 am)
Humidity90.2 %100 % (9:02 pm)81 % (8:54 am)
Barometer1014.2 hPa1017.9 hPa (12:54 am)1012.9 hPa (6:45 am)
Wind Speed14.5 km/h24.1 km/h (12:54 am)
Weather ElementAverage
Visibility12.2 km
Wind DirectionESE (104.3 °)

Weather ElementTotal
Precipitation1.78 mm
Heating Degree Days5.6 (Base 18.3)
Growing Degree Days2.8 (Base 10)
Averaged from 37 records on 22 May, 2013
WEATHER CONDITIONS BREAKOUT
WIND DIRECTION BREAKOUT
WEATHER BY HOUR - 22 MAY, 2013
[ °F ]   °C
Local TimeTemperatureDewpointHumidityBarometerVisibilityWind DirectionWind SpeedGust SpeedPrecipitationEventsConditions
12:54 AM11.1 °C10 °C93 %1017.9 hPa3.2 kmNNW (340°)24.1 km/h0.25 mmRainLight Rain
1:05 AM11 °C10 °C94 %1017.6 hPa3.2 kmNorth (350°)20.4 km/h0 mmRainLight Rain
1:22 AM11 °C9 °C88 %1016.6 hPa4.8 kmNNE (20°)18.5 km/h0.25 mmRainLight Rain
1:54 AM10.6 °C9.4 °C92 %1014.6 hPa12.9 kmENE (70°)20.4 km/h0.25 mmOvercast
2:54 AM11.1 °C9.4 °C89 %1013.9 hPa16.1 kmESE (120°)16.7 km/hOvercast
3:54 AM11.1 °C10 °C93 %1014.6 hPa16.1 kmESE (120°)9.3 km/hOvercast
4:54 AM11.1 °C10 °C93 %1013.5 hPa9.7 kmSE (130°)18.5 km/h0.51 mmRainLight Rain
5:54 AM11.7 °C10.6 °C93 %1013.9 hPa11.3 kmSE (140°)9.3 km/h0.25 mmOvercast
6:45 AM12 °C11 °C94 %1012.9 hPa16.1 kmSSW (200°)11.1 km/h0 mmRainLight Rain
6:54 AM11.7 °C10.6 °C93 %1013.2 hPa16.1 kmSSW (210°)13 km/h0 mmRainLight Rain
7:01 AM12 °C11 °C94 %1013.2 hPa16.1 kmSW (220°)22.2 km/h0 mmRainLight Rain
7:54 AM12.8 °C10.6 °C86 %1012.9 hPa16.1 kmCalm0 mmOvercast
8:07 AM13 °C11 °C88 %1012.9 hPa16.1 kmSSW (210°)7.4 km/hOvercast
8:54 AM14.4 °C11.1 °C81 %1013.5 hPa16.1 kmVariable5.6 km/hOvercast
9:54 AM14.4 °C11.7 °C84 %1013.9 hPa16.1 kmCalmOvercast
10:54 AM15 °C12.2 °C83 %1013.9 hPa16.1 kmSE (140°)9.3 km/hOvercast
11:54 AM14.4 °C12.2 °C87 %1014.2 hPa16.1 kmENE (70°)14.8 km/hOvercast
12:54 PM14.4 °C12.2 °C87 %1014.2 hPa16.1 kmENE (70°)18.5 km/hOvercast
1:11 PM14 °C12 °C88 %1014.2 hPa16.1 kmEast (80°)18.5 km/hOvercast
1:54 PM13.9 °C11.7 °C87 %1014.2 hPa14.5 kmENE (70°)18.5 km/hOvercast
2:10 PM14 °C12 °C88 %1014.2 hPa16.1 kmENE (70°)18.5 km/hOvercast
2:25 PM14 °C12 °C88 %1013.9 hPa16.1 kmEast (90°)20.4 km/hOvercast
2:54 PM13.9 °C11.7 °C87 %1013.9 hPa16.1 kmEast (90°)18.5 km/hOvercast
3:54 PM13.3 °C11.1 °C87 %1014.2 hPa16.1 kmESE (110°)20.4 km/hOvercast
4:54 PM13.3 °C11.1 °C87 %1013.9 hPa16.1 kmESE (110°)20.4 km/hOvercast
5:54 PM13.3 °C11.1 °C87 %1013.2 hPa16.1 kmEast (100°)16.7 km/hOvercast
6:13 PM13 °C11 °C88 %1013.5 hPa16.1 kmEast (100°)16.7 km/hOvercast
6:54 PM12.8 °C11.1 °C89 %1013.9 hPa16.1 kmEast (90°)14.8 km/hOvercast
7:52 PM13 °C11 °C88 %1014.2 hPa16.1 kmENE (70°)14.8 km/hOvercast
7:54 PM12.8 °C11.1 °C89 %1014.2 hPa16.1 kmENE (70°)14.8 km/hOvercast
8:33 PM12 °C11 °C94 %1014.6 hPa4 kmENE (60°)13 km/hOvercast
8:40 PM12 °C11 °C94 %1014.6 hPa4 kmENE (70°)13 km/hOvercast
8:54 PM12.2 °C11.1 °C93 %1014.6 hPa4 kmENE (60°)14.8 km/h0 mmLight Drizzle
9:02 PM12 °C12 °C100 %1014.2 hPa2.4 kmENE (70°)13 km/h0 mmLight Drizzle
9:54 PM12.2 °C11.7 °C97 %1014.6 hPa2.4 kmENE (60°)11.1 km/h0 mmLight Drizzle
10:54 PM12.2 °C11.7 °C97 %1014.6 hPa1.6 kmNE (40°)9.3 km/h0.25 mmLight Drizzle
11:54 PM12.2 °C11.7 °C97 %1013.9 hPa1.6 kmNE (40°)9.3 km/h0 mmOvercast
Hourly data recorded from KBOS, located 0 kilometers away from Boston, Massachusetts







STORIES FROM OUR PARTNERS